| time (UTC) | temp F | wind direction | speed MPH | gust MPH | rain 1hr in | rain 24hr in | rain mn in | humidity % | barometer mb |
| 20260905191021 | 97 | 157 | 4.0 | 7.0 | 0.00 | 0.00 | 0.00 | 46 | 1014.5 |
| 20260905190527 | 97 | 89 | 5.0 | 8.0 | 0.00 | 0.00 | 0.00 | 46 | 1014.5 |
| 20260905190015 | 97 | 61 | 3.0 | 5.0 | 0.00 | 0.00 | 0.00 | 46 | 1014.7 |
| 20260905185522 | 96 | 134 | 4.0 | 6.0 | 0.00 | 0.00 | 0.00 | 48 | 1014.7 |
| 20260905185028 | 96 | 159 | 6.0 | 11.0 | 0.00 | 0.00 | 0.00 | 48 | 1014.9 |
| 20260905184516 | 97 | 201 | 5.0 | 8.0 | 0.00 | 0.00 | 0.00 | 48 | 1014.9 |
| 20260905184023 | 97 | 173 | 4.0 | 7.0 | 0.00 | 0.00 | 0.00 | 47 | 1015.0 |
| 20260905183530 | 97 | 197 | 4.0 | 7.0 | 0.00 | 0.00 | 0.00 | 47 | 1015.0 |
| 20260905183018 | 96 | 180 | 7.0 | 13.0 | 0.00 | 0.00 | 0.00 | 48 | 1015.0 |
| 20260905182524 | 96 | 192 | 5.0 | 8.0 | 0.00 | 0.00 | 0.00 | 49 | 1015.2 |
| 20260905182030 | 97 | 175 | 5.0 | 8.0 | 0.00 | 0.00 | 0.00 | 47 | 1015.3 |
| 20260905181518 | 95 | 206 | 5.0 | 8.0 | 0.00 | 0.00 | 0.00 | 47 | 1015.3 |
| 20260905181025 | 95 | 166 | 6.0 | 8.0 | 0.00 | 0.00 | 0.00 | 47 | 1015.5 |
| 20260905180532 | 96 | 170 | 6.0 | 12.0 | 0.00 | 0.00 | 0.00 | 48 | 1015.5 |
| 20260905180040 | 96 | 142 | 5.0 | 7.0 | 0.00 | 0.00 | 0.00 | 49 | 1015.8 |
| 20260905175526 | 96 | 211 | 4.0 | 6.0 | 0.00 | 0.00 | 0.00 | 50 | 1015.8 |
| 20260905175053 | 95 | 168 | 5.0 | 8.0 | 0.00 | 0.00 | 0.00 | 51 | 1015.8 |
| 20260905174521 | 94 | 156 | 4.0 | 6.0 | 0.00 | 0.00 | 0.00 | 51 | 1015.8 |
| 20260905174028 | 95 | 226 | 4.0 | 6.0 | 0.00 | 0.00 | 0.00 | 51 | 1015.9 |
| 20260905173516 | 95 | 214 | 5.0 | 8.0 | 0.00 | 0.00 | 0.00 | 52 | 1016.0 |
| 20260905173022 | 94 | 210 | 4.0 | 7.0 | 0.00 | 0.00 | 0.00 | 54 | 1016.0 |
| 20260905172529 | 93 | 173 | 5.0 | 7.0 | 0.00 | 0.00 | 0.00 | 55 | 1016.1 |
| 20260905172017 | 93 | 166 | 5.0 | 8.0 | 0.00 | 0.00 | 0.00 | 54 | 1016.2 |
| 20260905171603 | 93 | 139 | 6.0 | 10.0 | 0.00 | 0.00 | 0.00 | 55 | 1016.2 |
| 20260905171030 | 93 | 152 | 6.0 | 8.0 | 0.00 | 0.00 | 0.00 | 55 | 1016.3 |
| 20260905170518 | 92 | 192 | 4.0 | 7.0 | 0.00 | 0.00 | 0.00 | 56 | 1016.3 |
| 20260905170045 | 93 | 141 | 6.0 | 8.0 | 0.00 | 0.00 | 0.00 | 55 | 1016.4 |
| 20260905165531 | 92 | 178 | 4.0 | 6.0 | 0.00 | 0.00 | 0.00 | 58 | 1016.4 |
| 20260905165040 | 91 | 205 | 4.0 | 8.0 | 0.00 | 0.00 | 0.00 | 62 | 1016.4 |
| 20260905164526 | 90 | 166 | 4.0 | 8.0 | 0.00 | 0.00 | 0.00 | 62 | 1016.4 |
| 20260905164053 | 90 | 140 | 4.0 | 7.0 | 0.00 | 0.00 | 0.00 | 62 | 1016.4 |
| 20260905163521 | 93 | 210 | 4.0 | 8.0 | 0.00 | 0.00 | 0.00 | 60 | 1016.4 |
| 20260905163048 | 92 | 234 | 4.0 | 6.0 | 0.00 | 0.00 | 0.00 | 62 | 1016.4 |
| 20260905162536 | 91 | 208 | 4.0 | 8.0 | 0.00 | 0.00 | 0.00 | 64 | 1016.4 |
| 20260905162022 | 91 | 219 | 4.0 | 6.0 | 0.00 | 0.00 | 0.00 | 65 | 1016.4 |
| 20260905161529 | 90 | 219 | 5.0 | 10.0 | 0.00 | 0.00 | 0.00 | 65 | 1016.4 |
| 20260905161017 | 90 | 225 | 4.0 | 7.0 | 0.00 | 0.00 | 0.00 | 65 | 1016.4 |
| 20260905160524 | 91 | 229 | 4.0 | 9.0 | 0.00 | 0.00 | 0.00 | 64 | 1016.4 |
| 20260905160050 | 89 | 203 | 4.0 | 7.0 | 0.00 | 0.00 | 0.00 | 68 | 1016.4 |
| 20260905155518 | 89 | 237 | 5.0 | 7.0 | 0.00 | 0.00 | 0.00 | 67 | 1016.4 |
| 20260905155024 | 90 | 222 | 5.0 | 8.0 | 0.00 | 0.00 | 0.00 | 66 | 1016.4 |
| 20260905154531 | 90 | 191 | 5.0 | 8.0 | 0.00 | 0.00 | 0.00 | 67 | 1016.4 |
| 20260905154019 | 89 | 210 | 5.0 | 9.0 | 0.00 | 0.00 | 0.00 | 69 | 1016.4 |
| 20260905153525 | 88 | 210 | 4.0 | 7.0 | 0.00 | 0.00 | 0.00 | 71 | 1016.4 |
| 20260905153032 | 89 | 213 | 5.0 | 7.0 | 0.00 | 0.00 | 0.00 | 69 | 1016.4 |
| 20260905152520 | 87 | 203 | 5.0 | 8.0 | 0.00 | 0.00 | 0.00 | 72 | 1016.5 |
| 20260905152026 | 87 | 191 | 5.0 | 7.0 | 0.00 | 0.00 | 0.00 | 72 | 1016.5 |
| 20260905151613 | 88 | 187 | 4.0 | 7.0 | 0.00 | 0.00 | 0.00 | 71 | 1016.5 |
| 20260905151021 | 88 | 217 | 6.0 | 9.0 | 0.00 | 0.00 | 0.00 | 71 | 1016.5 |
| 20260905150528 | 88 | 221 | 6.0 | 8.0 | 0.00 | 0.00 | 0.00 | 70 | 1016.5 |
| 20260905150016 | 88 | 238 | 5.0 | 9.0 | 0.00 | 0.00 | 0.00 | 70 | 1016.4 |
| 20260905145523 | 88 | 230 | 6.0 | 8.0 | 0.00 | 0.00 | 0.00 | 70 | 1016.4 |
| 20260905145049 | 88 | 238 | 4.0 | 8.0 | 0.00 | 0.00 | 0.00 | 71 | 1016.4 |
| 20260905144517 | 87 | 223 | 4.0 | 7.0 | 0.00 | 0.00 | 0.00 | 73 | 1016.4 |
| 20260905144043 | 87 | 197 | 5.0 | 8.0 | 0.00 | 0.00 | 0.00 | 73 | 1016.4 |
| 20260905143530 | 87 | 196 | 3.0 | 5.0 | 0.00 | 0.00 | 0.00 | 75 | 1016.4 |
| 20260905143018 | 87 | 220 | 4.0 | 7.0 | 0.00 | 0.00 | 0.00 | 76 | 1016.4 |
| 20260905142525 | 86 | 205 | 3.0 | 5.0 | 0.00 | 0.00 | 0.00 | 79 | 1016.2 |
| 20260905142031 | 84 | 201 | 3.0 | 5.0 | 0.00 | 0.00 | 0.00 | 81 | 1016.2 |
| 20260905141540 | 84 | 209 | 3.0 | 5.0 | 0.00 | 0.00 | 0.00 | 82 | 1016.2 |
| 20260905141026 | 82 | 220 | 3.0 | 6.0 | 0.00 | 0.00 | 0.00 | 85 | 1016.2 |
| 20260905140532 | 81 | 182 | 4.0 | 5.0 | 0.00 | 0.00 | 0.00 | 88 | 1016.2 |
| 20260905140021 | 80 | 181 | 4.0 | 5.0 | 0.00 | 0.00 | 0.00 | 89 | 1016.0 |
| 20260905135608 | 80 | 166 | 4.0 | 6.0 | 0.00 | 0.00 | 0.00 | 88 | 1016.0 |
| 20260905135016 | 81 | 209 | 4.0 | 7.0 | 0.00 | 0.00 | 0.00 | 88 | 1016.0 |
| 20260905134522 | 81 | 206 | 4.0 | 6.0 | 0.00 | 0.00 | 0.00 | 89 | 1016.0 |
| 20260905134028 | 80 | 205 | 3.0 | 5.0 | 0.00 | 0.00 | 0.00 | 90 | 1016.0 |
| 20260905133516 | 80 | 191 | 4.0 | 6.0 | 0.00 | 0.00 | 0.00 | 91 | 1015.8 |
| 20260905133023 | 79 | 231 | 4.0 | 6.0 | 0.00 | 0.00 | 0.00 | 93 | 1015.8 |
| 20260905132549 | 78 | 185 | 4.0 | 6.0 | 0.00 | 0.00 | 0.00 | 94 | 1015.8 |
| 20260905132017 | 77 | 223 | 4.0 | 6.0 | 0.00 | 0.00 | 0.00 | 96 | 1015.8 |
| 20260905131524 | 77 | 191 | 3.0 | 5.0 | 0.00 | 0.01 | 0.00 | 97 | 1015.7 |
| 20260905131030 | 76 | 149 | 3.0 | 5.0 | 0.00 | 0.01 | 0.00 | 98 | 1015.6 |
| 20260905130518 | 76 | 178 | 3.0 | 5.0 | 0.00 | 0.01 | 0.00 | 99 | 1015.6 |
| 20260905130025 | 75 | 170 | 2.0 | 6.0 | 0.00 | 0.01 | 0.00 | 99 | 1015.5 |
| 20260905125531 | 75 | 181 | 1.0 | 3.0 | 0.00 | 0.01 | 0.00 | 99 | 1015.5 |
| 20260905125019 | 75 | 182 | 2.0 | 3.0 | 0.00 | 0.01 | 0.00 | 99 | 1015.4 |
| 20260905124526 | 74 | 187 | 2.0 | 4.0 | 0.00 | 0.01 | 0.00 | 99 | 1015.3 |
| 20260905124032 | 74 | 161 | 2.0 | 3.0 | 0.00 | 0.01 | 0.00 | 99 | 1015.3 |
| 20260905123520 | 74 | 154 | 3.0 | 4.0 | 0.00 | 0.01 | 0.00 | 99 | 1015.3 |
| 20260905123027 | 74 | 165 | 2.0 | 4.0 | 0.00 | 0.01 | 0.00 | 99 | 1015.3 |
| 20260905122515 | 74 | 183 | 1.0 | 3.0 | 0.00 | 0.01 | 0.00 | 99 | 1015.3 |
| 20260905122022 | 74 | 164 | 3.0 | 4.0 | 0.00 | 0.01 | 0.00 | 99 | 1015.3 |
| 20260905121528 | 74 | 180 | 2.0 | 2.0 | 0.00 | 0.01 | 0.00 | 99 | 1015.2 |
| 20260905121037 | 74 | 180 | 2.0 | 3.0 | 0.00 | 0.01 | 0.00 | 99 | 1015.1 |
| 20260905120523 | 74 | 182 | 2.0 | 3.0 | 0.00 | 0.01 | 0.00 | 99 | 1015.1 |
| 20260905120150 | 74 | 189 | 2.0 | 3.0 | 0.00 | 0.01 | 0.00 | 99 | 1015.0 |
| 20260905115518 | 74 | 177 | 2.0 | 3.0 | 0.00 | 0.01 | 0.00 | 99 | 1015.0 |
| 20260905115024 | 74 | 158 | 2.0 | 3.0 | 0.00 | 0.01 | 0.00 | 99 | 1015.0 |
| 20260905114531 | 74 | 146 | 2.0 | 3.0 | 0.00 | 0.01 | 0.00 | 99 | 1015.0 |
| 20260905114019 | 74 | 154 | 2.0 | 3.0 | 0.00 | 0.01 | 0.00 | 99 | 1015.0 |
| 20260905113525 | 74 | 143 | 2.0 | 3.0 | 0.00 | 0.01 | 0.00 | 99 | 1015.0 |
| 20260905113032 | 74 | 157 | 2.0 | 3.0 | 0.00 | 0.01 | 0.00 | 99 | 1015.0 |
| 20260905112600 | 75 | 156 | 2.0 | 4.0 | 0.00 | 0.01 | 0.00 | 99 | 1014.8 |
| 20260905112026 | 75 | 176 | 3.0 | 4.0 | 0.00 | 0.01 | 0.00 | 99 | 1014.8 |
| 20260905111553 | 75 | 183 | 2.0 | 3.0 | 0.00 | 0.01 | 0.00 | 99 | 1014.8 |
| 20260905111021 | 75 | 187 | 1.0 | 3.0 | 0.00 | 0.01 | 0.00 | 98 | 1014.7 |
| 20260905110548 | 75 | 172 | 3.0 | 4.0 | 0.00 | 0.01 | 0.00 | 98 | 1014.7 |
| 20260905110016 | 75 | 183 | 3.0 | 4.0 | 0.00 | 0.01 | 0.00 | 98 | 1014.6 |
| 20260905105523 | 75 | 182 | 2.0 | 3.0 | 0.00 | 0.01 | 0.00 | 98 | 1014.6 |
| 20260905105029 | 75 | 175 | 3.0 | 5.0 | 0.00 | 0.01 | 0.00 | 98 | 1014.6 |
| 20260905104517 | 75 | 179 | 2.0 | 4.0 | 0.00 | 0.01 | 0.00 | 98 | 1014.6 |
| 20260905104024 | 75 | 196 | 2.0 | 5.0 | 0.00 | 0.01 | 0.00 | 98 | 1014.6 |
| 20260905103530 | 75 | 194 | 2.0 | 3.0 | 0.00 | 0.01 | 0.00 | 98 | 1014.7 |
| 20260905103018 | 75 | 186 | 1.0 | 3.0 | 0.00 | 0.01 | 0.00 | 98 | 1014.7 |
| 20260905102525 | 75 | 170 | 2.0 | 4.0 | 0.00 | 0.01 | 0.00 | 98 | 1014.7 |
| 20260905102031 | 75 | 188 | 1.0 | 3.0 | 0.00 | 0.01 | 0.00 | 98 | 1014.7 |
| 20260905101519 | 75 | 186 | 2.0 | 3.0 | 0.00 | 0.01 | 0.00 | 98 | 1014.8 |
| 20260905101026 | 75 | 195 | 1.0 | 3.0 | 0.00 | 0.01 | 0.00 | 98 | 1014.8 |
| 20260905100532 | 75 | 203 | 0.0 | 2.0 | 0.00 | 0.01 | 0.00 | 98 | 1014.8 |
| 20260905100021 | 75 | 0.0 | 0.0 | 0.00 | 0.01 | 0.00 | 97 | 1014.7 | |
| 20260905095527 | 75 | 0.0 | 0.0 | 0.00 | 0.01 | 0.00 | 97 | 1014.7 | |
| 20260905095015 | 75 | 0.0 | 0.0 | 0.00 | 0.01 | 0.00 | 97 | 1014.7 | |
| 20260905094542 | 75 | 193 | 2.0 | 4.0 | 0.00 | 0.01 | 0.00 | 96 | 1014.6 |
| 20260905094028 | 75 | 202 | 2.0 | 4.0 | 0.00 | 0.01 | 0.00 | 96 | 1014.6 |
| 20260905093537 | 75 | 179 | 3.0 | 5.0 | 0.00 | 0.01 | 0.00 | 96 | 1014.6 |
| 20260905093023 | 75 | 189 | 3.0 | 4.0 | 0.00 | 0.01 | 0.00 | 96 | 1014.6 |
| 20260905092530 | 76 | 206 | 3.0 | 4.0 | 0.00 | 0.01 | 0.00 | 96 | 1014.6 |
| 20260905092018 | 76 | 222 | 2.0 | 4.0 | 0.00 | 0.01 | 0.00 | 95 | 1014.6 |
| 20260905091544 | 76 | 209 | 3.0 | 4.0 | 0.00 | 0.01 | 0.00 | 95 | 1014.7 |
| 20260905091051 | 76 | 195 | 3.0 | 5.0 | 0.00 | 0.01 | 0.00 | 95 | 1014.7 |
| 20260905090519 | 76 | 205 | 3.0 | 4.0 | 0.00 | 0.01 | 0.00 | 94 | 1014.8 |
| 20260905090026 | 76 | 186 | 3.0 | 4.0 | 0.00 | 0.01 | 0.00 | 94 | 1014.8 |
| 20260905085532 | 76 | 184 | 4.0 | 6.0 | 0.00 | 0.01 | 0.00 | 94 | 1014.8 |
| 20260905085040 | 76 | 192 | 4.0 | 6.0 | 0.00 | 0.01 | 0.00 | 94 | 1014.8 |
| 20260905084607 | 76 | 200 | 3.0 | 5.0 | 0.00 | 0.01 | 0.00 | 93 | 1014.7 |
| 20260905084015 | 76 | 162 | 4.0 | 6.0 | 0.00 | 0.01 | 0.00 | 93 | 1014.7 |
| 20260905083522 | 76 | 174 | 5.0 | 7.0 | 0.00 | 0.01 | 0.00 | 93 | 1014.7 |
| 20260905083028 | 76 | 187 | 5.0 | 8.0 | 0.00 | 0.01 | 0.00 | 93 | 1014.7 |
| 20260905082516 | 76 | 197 | 5.0 | 7.0 | 0.00 | 0.01 | 0.00 | 93 | 1014.8 |
| 20260905082043 | 76 | 192 | 4.0 | 6.0 | 0.00 | 0.01 | 0.00 | 92 | 1014.8 |
| 20260905081529 | 77 | 218 | 5.0 | 8.0 | 0.00 | 0.01 | 0.00 | 92 | 1014.9 |
| 20260905081017 | 77 | 187 | 5.0 | 7.0 | 0.00 | 0.01 | 0.00 | 92 | 1014.9 |
| 20260905080544 | 77 | 204 | 5.0 | 7.0 | 0.00 | 0.01 | 0.00 | 92 | 1014.9 |
| 20260905080030 | 77 | 197 | 4.0 | 6.0 | 0.00 | 0.01 | 0.00 | 91 | 1015.0 |
| 20260905075519 | 77 | 147 | 4.0 | 8.0 | 0.00 | 0.01 | 0.00 | 91 | 1015.0 |
| 20260905075026 | 77 | 172 | 5.0 | 8.0 | 0.00 | 0.01 | 0.00 | 91 | 1015.1 |
| 20260905074532 | 77 | 174 | 4.0 | 6.0 | 0.00 | 0.01 | 0.00 | 91 | 1015.1 |
| 20260905074040 | 77 | 180 | 4.0 | 6.0 | 0.00 | 0.01 | 0.00 | 90 | 1015.1 |
| 20260905073527 | 77 | 171 | 4.0 | 7.0 | 0.00 | 0.01 | 0.00 | 90 | 1015.1 |
| 20260905073033 | 77 | 190 | 4.0 | 6.0 | 0.00 | 0.01 | 0.00 | 90 | 1015.1 |
| 20260905072521 | 77 | 138 | 4.0 | 6.0 | 0.00 | 0.01 | 0.00 | 90 | 1015.3 |
| 20260905072108 | 77 | 168 | 4.0 | 5.0 | 0.00 | 0.01 | 0.00 | 89 | 1015.3 |
| 20260905071556 | 78 | 176 | 5.0 | 7.0 | 0.00 | 0.01 | 0.00 | 89 | 1015.3 |
| 20260905071022 | 78 | 176 | 5.0 | 7.0 | 0.00 | 0.01 | 0.00 | 89 | 1015.3 |
| 20260905070529 | 78 | 189 | 4.0 | 6.0 | 0.00 | 0.01 | 0.00 | 89 | 1015.3 |
| 20260905070017 | 78 | 176 | 5.0 | 7.0 | 0.00 | 0.01 | 0.00 | 88 | 1015.3 |
| 20260905065523 | 78 | 183 | 5.0 | 6.0 | 0.00 | 0.01 | 0.00 | 88 | 1015.3 |
| 20260905065030 | 78 | 173 | 5.0 | 9.0 | 0.00 | 0.01 | 0.00 | 88 | 1015.3 |
| 20260905064518 | 78 | 153 | 4.0 | 7.0 | 0.00 | 0.01 | 0.00 | 87 | 1015.3 |
| 20260905064025 | 78 | 182 | 6.0 | 9.0 | 0.00 | 0.01 | 0.00 | 87 | 1015.3 |
| 20260905063531 | 78 | 177 | 5.0 | 8.0 | 0.00 | 0.01 | 0.00 | 86 | 1015.3 |
| 20260905063039 | 78 | 174 | 6.0 | 8.0 | 0.00 | 0.01 | 0.00 | 86 | 1015.3 |
| 20260905062526 | 78 | 164 | 5.0 | 7.0 | 0.00 | 0.01 | 0.00 | 86 | 1015.4 |
| 20260905062032 | 78 | 151 | 4.0 | 6.0 | 0.00 | 0.01 | 0.00 | 85 | 1015.5 |
| 20260905061521 | 78 | 174 | 5.0 | 8.0 | 0.00 | 0.01 | 0.00 | 84 | 1015.4 |
| 20260905061027 | 78 | 145 | 5.0 | 9.0 | 0.00 | 0.01 | 0.00 | 84 | 1015.3 |
| 20260905060516 | 79 | 153 | 4.0 | 6.0 | 0.00 | 0.01 | 0.00 | 84 | 1015.3 |
| 20260905060022 | 79 | 167 | 4.0 | 7.0 | 0.00 | 0.01 | 0.00 | 83 | 1015.5 |
| 20260905055529 | 79 | 162 | 5.0 | 7.0 | 0.00 | 0.01 | 0.00 | 83 | 1015.5 |
| 20260905055016 | 79 | 164 | 4.0 | 8.0 | 0.00 | 0.01 | 0.00 | 82 | 1015.4 |
| 20260905054603 | 79 | 158 | 5.0 | 7.0 | 0.00 | 0.01 | 0.00 | 82 | 1015.3 |
| 20260905054029 | 79 | 156 | 4.0 | 7.0 | 0.00 | 0.01 | 0.00 | 82 | 1015.4 |
| 20260905053518 | 79 | 166 | 5.0 | 7.0 | 0.00 | 0.01 | 0.00 | 81 | 1015.5 |
| 20260905053024 | 79 | 161 | 5.0 | 8.0 | 0.00 | 0.01 | 0.00 | 81 | 1015.5 |
| 20260905052531 | 79 | 162 | 5.0 | 7.0 | 0.00 | 0.01 | 0.00 | 80 | 1015.5 |
| 20260905052019 | 80 | 178 | 5.0 | 8.0 | 0.00 | 0.01 | 0.00 | 80 | 1015.5 |
| 20260905051525 | 80 | 155 | 5.0 | 8.0 | 0.00 | 0.01 | 0.00 | 79 | 1015.5 |
| 20260905051032 | 80 | 165 | 5.0 | 9.0 | 0.00 | 0.01 | 0.00 | 79 | 1015.5 |
| 20260905050520 | 80 | 136 | 6.0 | 7.0 | 0.00 | 0.01 | 0.00 | 79 | 1015.5 |
| 20260905050026 | 80 | 172 | 4.0 | 8.0 | 0.00 | 0.01 | 0.00 | 79 | 1015.6 |
| 20260905045553 | 80 | 182 | 5.0 | 9.0 | 0.00 | 0.01 | 0.01 | 79 | 1015.6 |
| 20260905045021 | 80 | 140 | 5.0 | 8.0 | 0.00 | 0.01 | 0.01 | 78 | 1015.5 |
| 20260905044608 | 80 | 154 | 6.0 | 10.0 | 0.00 | 0.01 | 0.01 | 78 | 1015.5 |
| 20260905044016 | 80 | 145 | 7.0 | 11.0 | 0.00 | 0.01 | 0.01 | 78 | 1015.5 |
| 20260905043522 | 80 | 153 | 6.0 | 10.0 | 0.00 | 0.01 | 0.01 | 77 | 1015.5 |
| 20260905043029 | 80 | 132 | 7.0 | 9.0 | 0.00 | 0.01 | 0.01 | 77 | 1015.5 |
| 20260905042517 | 80 | 159 | 7.0 | 9.0 | 0.00 | 0.01 | 0.01 | 76 | 1015.3 |
| 20260905042023 | 81 | 142 | 3.0 | 4.0 | 0.00 | 0.01 | 0.01 | 76 | 1015.3 |
| 20260905041530 | 81 | 147 | 3.0 | 5.0 | 0.00 | 0.01 | 0.01 | 75 | 1015.3 |
| 20260905041018 | 81 | 164 | 3.0 | 4.0 | 0.00 | 0.01 | 0.01 | 75 | 1015.3 |
| 20260905040525 | 81 | 175 | 3.0 | 4.0 | 0.00 | 0.01 | 0.01 | 75 | 1015.3 |
| 20260905040031 | 81 | 158 | 4.0 | 7.0 | 0.00 | 0.01 | 0.01 | 74 | 1015.3 |
| 20260905035519 | 81 | 153 | 4.0 | 7.0 | 0.00 | 0.01 | 0.01 | 74 | 1015.3 |
| 20260905035026 | 81 | 153 | 5.0 | 8.0 | 0.00 | 0.01 | 0.01 | 74 | 1015.3 |
| 20260905034533 | 81 | 164 | 5.0 | 7.0 | 0.00 | 0.01 | 0.01 | 73 | 1015.3 |
| 20260905034021 | 81 | 145 | 5.0 | 8.0 | 0.00 | 0.01 | 0.01 | 73 | 1015.3 |
| 20260905033547 | 81 | 152 | 4.0 | 6.0 | 0.00 | 0.01 | 0.01 | 73 | 1015.3 |
| 20260905033015 | 82 | 140 | 4.0 | 6.0 | 0.00 | 0.01 | 0.01 | 73 | 1015.3 |
| 20260905032522 | 82 | 172 | 5.0 | 7.0 | 0.00 | 0.01 | 0.01 | 73 | 1015.3 |
| 20260905032048 | 82 | 135 | 4.0 | 5.0 | 0.00 | 0.01 | 0.01 | 73 | 1015.3 |
| 20260905031536 | 82 | 166 | 5.0 | 7.0 | 0.00 | 0.01 | 0.01 | 73 | 1015.1 |
| 20260905031023 | 82 | 153 | 5.0 | 7.0 | 0.00 | 0.01 | 0.01 | 73 | 1015.0 |
| 20260905030529 | 82 | 148 | 5.0 | 7.0 | 0.00 | 0.01 | 0.01 | 73 | 1015.0 |
| 20260905030017 | 82 | 137 | 5.0 | 9.0 | 0.00 | 0.01 | 0.01 | 73 | 1014.8 |
| 20260905025523 | 82 | 144 | 5.0 | 6.0 | 0.00 | 0.01 | 0.01 | 73 | 1014.8 |
| 20260905025030 | 82 | 146 | 4.0 | 6.0 | 0.00 | 0.01 | 0.01 | 73 | 1014.8 |
| 20260905024518 | 82 | 136 | 5.0 | 6.0 | 0.00 | 0.01 | 0.01 | 73 | 1014.7 |
| 20260905024025 | 82 | 156 | 4.0 | 6.0 | 0.00 | 0.01 | 0.01 | 73 | 1014.7 |
| 20260905023531 | 82 | 135 | 4.0 | 5.0 | 0.00 | 0.01 | 0.01 | 73 | 1014.7 |
| 20260905023019 | 82 | 154 | 4.0 | 5.0 | 0.00 | 0.01 | 0.01 | 73 | 1014.7 |
| 20260905022526 | 83 | 151 | 3.0 | 5.0 | 0.00 | 0.01 | 0.01 | 72 | 1014.6 |
| 20260905022052 | 83 | 163 | 3.0 | 4.0 | 0.00 | 0.01 | 0.01 | 72 | 1014.6 |
| 20260905021521 | 83 | 164 | 4.0 | 6.0 | 0.00 | 0.01 | 0.01 | 72 | 1014.5 |
| 20260905021047 | 83 | 154 | 4.0 | 5.0 | 0.00 | 0.01 | 0.01 | 71 | 1014.4 |
| 20260905020515 | 83 | 169 | 4.0 | 7.0 | 0.00 | 0.01 | 0.01 | 71 | 1014.4 |
| 20260905020022 | 83 | 176 | 5.0 | 7.0 | 0.00 | 0.01 | 0.01 | 71 | 1014.4 |
| 20260905015528 | 83 | 142 | 6.0 | 8.0 | 0.00 | 0.01 | 0.01 | 71 | 1014.4 |
| 20260905015036 | 84 | 151 | 6.0 | 8.0 | 0.00 | 0.01 | 0.01 | 70 | 1014.3 |
| 20260905014543 | 84 | 172 | 6.0 | 11.0 | 0.00 | 0.01 | 0.01 | 70 | 1014.2 |
| 20260905014029 | 84 | 137 | 4.0 | 6.0 | 0.00 | 0.01 | 0.01 | 69 | 1014.2 |
| 20260905013517 | 84 | 160 | 5.0 | 7.0 | 0.00 | 0.01 | 0.01 | 68 | 1014.1 |
| 20260905013024 | 84 | 132 | 5.0 | 7.0 | 0.00 | 0.01 | 0.01 | 67 | 1014.1 |
| 20260905012530 | 84 | 143 | 5.0 | 9.0 | 0.00 | 0.01 | 0.01 | 67 | 1014.1 |
| 20260905012018 | 84 | 177 | 6.0 | 10.0 | 0.00 | 0.01 | 0.01 | 66 | 1014.1 |
| 20260905011525 | 85 | 172 | 5.0 | 6.0 | 0.00 | 0.01 | 0.01 | 66 | 1014.0 |
| 20260905011031 | 85 | 144 | 5.0 | 6.0 | 0.00 | 0.01 | 0.01 | 66 | 1013.9 |
| 20260905010519 | 85 | 157 | 6.0 | 10.0 | 0.00 | 0.01 | 0.01 | 66 | 1013.9 |
| 20260905010046 | 85 | 146 | 5.0 | 7.0 | 0.00 | 0.01 | 0.01 | 66 | 1013.8 |
| 20260905005552 | 85 | 143 | 5.0 | 7.0 | 0.00 | 0.01 | 0.01 | 66 | 1013.8 |
| 20260905005020 | 85 | 127 | 5.0 | 6.0 | 0.00 | 0.01 | 0.01 | 66 | 1013.7 |
| 20260905004527 | 85 | 148 | 7.0 | 10.0 | 0.00 | 0.01 | 0.01 | 66 | 1013.7 |
| 20260905004015 | 86 | 144 | 6.0 | 8.0 | 0.00 | 0.01 | 0.01 | 66 | 1013.7 |
| 20260905003542 | 86 | 166 | 5.0 | 8.0 | 0.00 | 0.01 | 0.01 | 65 | 1013.6 |
| 20260905003048 | 86 | 169 | 6.0 | 8.0 | 0.00 | 0.01 | 0.01 | 65 | 1013.6 |
| 20260905002516 | 87 | 135 | 8.0 | 12.0 | 0.00 | 0.01 | 0.01 | 64 | 1013.6 |
| 20260905002022 | 87 | 143 | 7.0 | 10.0 | 0.00 | 0.01 | 0.01 | 64 | 1013.6 |
| 20260905001529 | 88 | 128 | 8.0 | 11.0 | 0.00 | 0.01 | 0.01 | 64 | 1013.4 |
| 20260905001037 | 88 | 136 | 8.0 | 11.0 | 0.00 | 0.01 | 0.01 | 62 | 1013.3 |
| 20260905000524 | 89 | 124 | 7.0 | 11.0 | 0.00 | 0.01 | 0.01 | 62 | 1013.3 |
| 20260905000030 | 90 | 125 | 7.0 | 10.0 | 0.00 | 0.01 | 0.01 | 60 | 1013.1 |
| 20260904235519 | 90 | 132 | 7.0 | 10.0 | 0.00 | 0.01 | 0.01 | 59 | 1013.1 |
| 20260904235045 | 91 | 120 | 7.0 | 11.0 | 0.00 | 0.01 | 0.01 | 58 | 1013.1 |
| 20260904234531 | 91 | 127 | 7.0 | 9.0 | 0.00 | 0.01 | 0.01 | 57 | 1013.1 |
| 20260904234039 | 92 | 148 | 6.0 | 9.0 | 0.00 | 0.01 | 0.01 | 51 | 1013.0 |
| 20260904233526 | 92 | 175 | 7.0 | 10.0 | 0.00 | 0.01 | 0.01 | 48 | 1012.9 |
| 20260904233032 | 92 | 157 | 6.0 | 8.0 | 0.00 | 0.01 | 0.01 | 48 | 1012.9 |
| 20260904232521 | 92 | 184 | 9.0 | 11.0 | 0.00 | 0.01 | 0.01 | 46 | 1013.2 |
| 20260904232027 | 92 | 179 | 7.0 | 9.0 | 0.00 | 0.01 | 0.01 | 46 | 1013.2 |
| 20260904231515 | 93 | 182 | 6.0 | 7.0 | 0.00 | 0.01 | 0.01 | 45 | 1013.2 |
| 20260904231042 | 93 | 177 | 6.0 | 9.0 | 0.00 | 0.01 | 0.01 | 45 | 1013.3 |
| 20260904230528 | 93 | 192 | 6.0 | 10.0 | 0.00 | 0.01 | 0.01 | 46 | 1013.3 |
| 20260904230016 | 93 | 202 | 5.0 | 9.0 | 0.00 | 0.01 | 0.01 | 46 | 1013.4 |
| 20260904225523 | 93 | 190 | 6.0 | 10.0 | 0.00 | 0.01 | 0.01 | 46 | 1013.4 |
| 20260904225049 | 93 | 169 | 6.0 | 9.0 | 0.00 | 0.01 | 0.01 | 48 | 1013.3 |
| 20260904224517 | 92 | 183 | 7.0 | 11.0 | 0.00 | 0.01 | 0.01 | 49 | 1013.3 |
| 20260904224044 | 91 | 166 | 6.0 | 9.0 | 0.00 | 0.01 | 0.01 | 49 | 1013.3 |
| 20260904223551 | 93 | 116 | 6.0 | 9.0 | 0.00 | 0.01 | 0.01 | 47 | 1013.5 |
| 20260904223018 | 93 | 136 | 5.0 | 9.0 | 0.00 | 0.01 | 0.01 | 47 | 1013.5 |
| 20260904222525 | 93 | 144 | 7.0 | 8.0 | 0.00 | 0.01 | 0.01 | 48 | 1013.5 |
| 20260904222031 | 93 | 157 | 6.0 | 10.0 | 0.00 | 0.01 | 0.01 | 49 | 1013.5 |
| 20260904221539 | 93 | 132 | 6.0 | 9.0 | 0.00 | 0.01 | 0.01 | 48 | 1013.5 |
| 20260904221026 | 93 | 160 | 7.0 | 10.0 | 0.00 | 0.01 | 0.01 | 48 | 1013.6 |
| 20260904220553 | 93 | 174 | 5.0 | 7.0 | 0.00 | 0.01 | 0.01 | 47 | 1013.6 |
| 20260904220041 | 93 | 160 | 7.0 | 9.0 | 0.00 | 0.01 | 0.01 | 47 | 1013.7 |
| 20260904215527 | 93 | 144 | 7.0 | 8.0 | 0.00 | 0.01 | 0.01 | 48 | 1013.7 |
| 20260904215015 | 93 | 141 | 7.0 | 11.0 | 0.00 | 0.01 | 0.01 | 47 | 1013.8 |
| 20260904214521 | 94 | 136 | 5.0 | 8.0 | 0.00 | 0.01 | 0.01 | 48 | 1013.9 |
| 20260904214028 | 93 | 168 | 6.0 | 8.0 | 0.00 | 0.01 | 0.01 | 47 | 1013.9 |
| 20260904213516 | 94 | 188 | 7.0 | 10.0 | 0.00 | 0.01 | 0.01 | 47 | 1014.0 |
| 20260904213023 | 93 | 147 | 6.0 | 8.0 | 0.00 | 0.01 | 0.01 | 47 | 1014.0 |
| 20260904212529 | 93 | 147 | 6.0 | 9.0 | 0.00 | 0.01 | 0.01 | 47 | 1014.1 |
| 20260904212038 | 93 | 194 | 7.0 | 10.0 | 0.00 | 0.01 | 0.01 | 48 | 1014.1 |
| 20260904211544 | 93 | 160 | 7.0 | 10.0 | 0.00 | 0.01 | 0.01 | 48 | 1014.2 |
| 20260904211030 | 94 | 157 | 9.0 | 13.0 | 0.00 | 0.01 | 0.01 | 46 | 1014.2 |
| 20260904210559 | 93 | 153 | 5.0 | 9.0 | 0.00 | 0.01 | 0.01 | 49 | 1014.2 |
| 20260904210025 | 92 | 131 | 8.0 | 11.0 | 0.00 | 0.01 | 0.01 | 52 | 1014.3 |
| 20260904205531 | 92 | 165 | 9.0 | 11.0 | 0.00 | 0.01 | 0.01 | 53 | 1014.3 |
| 20260904205019 | 93 | 132 | 7.0 | 10.0 | 0.00 | 0.01 | 0.01 | 53 | 1014.3 |
| 20260904204526 | 94 | 143 | 7.0 | 10.0 | 0.00 | 0.01 | 0.01 | 53 | 1014.3 |
| 20260904204032 | 94 | 158 | 7.0 | 11.0 | 0.00 | 0.01 | 0.01 | 54 | 1014.4 |
| 20260904203521 | 94 | 172 | 4.0 | 8.0 | 0.00 | 0.01 | 0.01 | 54 | 1014.6 |
| 20260904203027 | 93 | 142 | 7.0 | 11.0 | 0.00 | 0.01 | 0.01 | 52 | 1014.6 |
| 20260904202515 | 93 | 115 | 8.0 | 10.0 | 0.00 | 0.01 | 0.01 | 52 | 1014.6 |
| 20260904202022 | 93 | 149 | 7.0 | 9.0 | 0.00 | 0.01 | 0.01 | 54 | 1014.6 |
| 20260904201528 | 93 | 154 | 6.0 | 8.0 | 0.00 | 0.01 | 0.01 | 56 | 1014.7 |
| 20260904201037 | 92 | 172 | 7.0 | 11.0 | 0.00 | 0.01 | 0.01 | 57 | 1014.8 |
| 20260904200523 | 93 | 150 | 7.0 | 11.0 | 0.00 | 0.01 | 0.01 | 54 | 1014.8 |
| 20260904200029 | 93 | 162 | 7.0 | 9.0 | 0.00 | 0.01 | 0.01 | 54 | 1014.9 |
| 20260904195518 | 92 | 114 | 6.0 | 10.0 | 0.00 | 0.01 | 0.01 | 56 | 1014.9 |
| 20260904195024 | 91 | 142 | 7.0 | 10.0 | 0.00 | 0.01 | 0.01 | 58 | 1015.0 |
| 20260904194551 | 91 | 131 | 7.0 | 11.0 | 0.00 | 0.01 | 0.01 | 59 | 1015.0 |
| 20260904194018 | 92 | 144 | 8.0 | 10.0 | 0.00 | 0.01 | 0.01 | 60 | 1015.0 |
| 20260904193525 | 92 | 112 | 6.0 | 8.0 | 0.00 | 0.01 | 0.01 | 59 | 1015.1 |
| 20260904193031 | 92 | 180 | 7.0 | 12.0 | 0.00 | 0.01 | 0.01 | 58 | 1015.1 |
| 20260904192520 | 92 | 194 | 7.0 | 11.0 | 0.00 | 0.01 | 0.01 | 58 | 1015.3 |
| 20260904192026 | 92 | 171 | 6.0 | 8.0 | 0.00 | 0.01 | 0.01 | 59 | 1015.3 |
| 20260904191533 | 91 | 168 | 6.0 | 9.0 | 0.00 | 0.01 | 0.01 | 60 | 1015.4 |